RH
59 61 60 60 61 63 65 65 65 66 67 66 66 67 69 68 68 68 69 72 74 76 77 78 78 75 73 34 31 19 54 41 16 15 17 18 32 37 43 40 31 26 21 16 14 13 9
58 62 60 62 62 63 67 66 66 67 67 66 68 70 69 68 68 70 72 75 77 79 79 79 77 73 58 40 22 21 15 15 18 18 17 16 20 21 36 40 44 30 31 28 24 20 14
63 62 63 63 61 66 67 68 68 68 66 67 68 68 69 70 72 73 76 77 81 80 80 78 72 59 47 34 21 21 16 18 17 18 20 18 17 17 22 31 34 34 37 29 24 24 16
63 60 60 61 61 65 65 68 67 65 67 70 68 70 73 75 76 76 77 81 82 80 80 76 69 66 43 28 21 20 21 19 16 15 19 18 22 20 25 27 32 36 39 44 22 20 15
58 59 59 60 60 65 64 64 66 67 68 68 69 70 72 76 80 82 82 84 83 79 77 75 74 76 38 24 22 21 23 20 16 16 18 14 24 23 20 30 38 47 41 31 21 20 19
63 61 60 61 60 64 62 64 67 68 68 68 69 71 73 77 81 82 84 82 74 65 66 46 50 47 25 24 23 24 21 18 18 20 21 22 36 35 29 33 28 43 35 35 33 23 15
59 60 61 62 62 63 62 63 67 69 68 68 69 71 74 77 79 84 90 55 59 40 55 54 36 30 24 20 24 23 20 21 23 26 31 28 34 42 41 28 22 23 26 28 24 22 27
63 63 63 62 62 64 63 64 67 70 69 68 69 72 74 75 82 85 61 62 59 55 60 48 41 27 22 25 34 23 23 29 30 36 29 32 37 27 22 22 27 29 30 30 26 26 28
64 65 64 65 66 64 64 67 67 70 70 67 69 73 74 80 84 76 68 61 54 62 73 47 33 28 26 25 31 26 28 33 38 38 42 42 32 24 23 25 28 30 32 32 26 19 18
68 67 66 65 66 68 67 68 68 71 68 66 69 73 81 85 74 87 81 72 66 70 53 32 29 27 22 25 30 24 24 29 38 45 44 48 27 34 37 33 25 31 24 30 35 27 28
69 68 66 66 64 66 70 69 71 70 67 66 71 74 82 81 86 89 78 81 78 75 57 18 22 18 18 19 17 21 24 32 46 46 45 44 39 43 44 38 28 27 25 28 28 39 42
69 64 67 69 68 70 70 71 69 67 67 68 73 76 81 82 93 86 84 89 83 76 50 27 23 26 28 23 18 20 20 31 39 48 45 42 32 39 38 27 26 22 25 29 42 44 51
75 65 68 68 69 68 65 65 70 68 67 72 76 79 81 80 93 89 93 90 76 69 30 29 34 31 33 29 27 30 29 54 65 72 61 48 38 34 28 37 32 38 61 84 66 54 47
71 69 69 68 67 69 65 67 67 66 71 76 80 84 80 83 94 92 93 71 57 45 38 30 32 35 37 34 35 39 42 52 59 63 76 74 62 44 33 38 42 45 53 93 93 66 54
68 68 67 67 67 69 67 66 69 66 74 80 81 95 94 91 90 94 74 88 73 51 32 39 39 40 46 36 41 47 54 65 66 64 78 84 66 44 36 31 38 44 62 46 91 82 62
74 70 65 66 69 69 69 68 68 66 74 79 96 96 94 85 90 91 88 82 76 34 31 37 56 48 53 47 51 52 53 69 62 54 55 68 89 47 37 35 30 43 45 80 74 80 84
77 72 71 68 68 68 68 66 68 68 75 78 95 95 86 83 86 86 90 88 59 32 31 43 46 48 48 52 48 51 49 65 59 52 57 74 81 58 51 43 51 64 69 60 66 93 79
78 77 75 70 65 66 66 66 68 68 79 81 95 92 82 77 87 99 97 76 54 39 33 38 42 48 50 53 54 54 51 45 42 46 65 64 70 90 51 37 41 61 73 72 86 76 75
78 80 75 72 69 66 67 67 66 68 75 95 99 98 87 78 91 100 91 74 48 41 41 45 46 43 46 52 62 56 50 44 43 47 55 58 76 79 56 46 52 63 53 54 76 86 85
79 79 75 70 72 68 64 66 66 68 73 93 95 98 96 96 97 91 87 72 59 40 40 38 42 44 52 57 51 61 54 46 45 45 51 51 72 69 81 75 72 70 53 48 58 96 88
81 78 76 74 73 69 64 64 66 69 75 95 98 95 76 96 90 94 82 73 64 57 43 39 48 52 59 66 62 59 57 52 47 42 59 64 90 82 68 55 50 50 48 45 52 55 78
83 83 79 78 73 73 68 65 68 71 74 97 97 97 89 91 84 88 84 85 72 61 49 50 56 56 50 61 58 68 63 58 61 55 60 63 83 69 70 48 50 59 52 50 49 44 44
84 84 82 79 77 75 71 68 69 72 79 97 96 82 83 86 92 91 90 76 69 66 54 43 47 57 62 59 57 55 56 58 56 61 66 69 76 80 83 65 60 67 48 46 46 49 66
83 82 78 76 74 75 73 72 72 72 80 97 97 88 93 93 93 87 68 65 69 66 59 50 49 55 53 52 52 56 60 58 61 62 58 70 77 77 88 73 86 44 60 57 54 65 63
84 82 80 77 77 76 77 78 75 71 75 98 97 94 96 97 90 78 73 72 66 62 57 50 53 49 50 58 79 80 80 63 57 63 63 58 72 94 97 95 65 60 74 74 80 76 60
83 82 82 81 83 81 78 78 76 72 74 96 96 94 92 95 86 66 68 59 77 71 71 62 54 54 58 80 93 99 94 70 70 56 52 59 66 89 97 97 96 87 61 46 62 88 54
84 83 83 82 83 82 79 79 79 74 74 92 93 91 89 97 83 73 83 75 64 77 91 73 65 65 62 96 98 98 93 63 80 68 68 80 90 91 93 97 88 79 50 54 86 82 52
85 84 84 84 83 84 80 80 79 77 74 90 93 89 95 98 88 73 73 76 73 79 89 73 77 83 92 92 96 95 96 91 88 72 64 65 81 92 93 99 88 48 54 70 68 58 65
86 85 84 84 84 84 84 81 79 80 76 81 95 85 91 97 89 82 74 69 72 70 88 82 75 81 84 95 98 97 96 95 81 86 58 74 69 85 79 78 61 50 56 52 58 69 63
Wind_Speed
5 4 5 6 7 8 7 8 10 10 12 13 14 15 16 17 17 18 19 19 19 19 20 19 18 17 6 6 3 6 9 9 8 7 6 6 6 5 4 6 9 5 6 8 12 13 12
1 2 3 6 7 8 7 8 9 11 12 14 14 15 17 19 19 20 21 21 20 19 17 17 16 13 2 8 4 6 7 6 7 6 7 5 3 5 4 4 4 8 12 13 10 16 9
3 1 2 5 7 7 7 8 10 12 13 13 15 17 18 19 21 21 22 22 21 19 16 12 8 4 4 5 3 7 8 6 5 2 4 3 4 4 6 9 4 10 9 12 14 6 6
3 3 3 4 5 7 7 8 10 11 12 13 15 17 18 20 21 22 22 21 21 18 13 7 5 3 4 3 4 6 5 4 7 6 3 6 3 2 3 3 9 8 6 4 4 5 5
4 2 3 3 4 5 7 7 9 11 13 14 15 17 18 20 21 21 21 20 15 9 5 5 2 3 3 7 7 9 2 2 4 4 6 6 3 3 4 4 6 4 8 10 11 6 7
4 2 4 3 4 5 6 7 9 12 13 15 16 17 19 20 21 22 22 9 3 4 1 3 3 3 5 5 6 7 5 4 4 7 7 9 6 4 5 5 4 5 8 6 7 7 18
6 5 4 4 5 5 6 7 9 11 14 15 16 17 19 21 23 25 13 5 8 7 9 2 4 3 3 8 5 5 4 3 4 6 7 6 6 3 7 8 12 12 16 22 20 17 19
5 6 6 6 5 6 6 7 9 11 13 14 15 17 19 21 22 22 7 7 3 3 4 4 6 4 6 2 3 6 2 5 5 5 4 7 1 4 9 11 12 15 18 22 18 15 18
8 7 7 7 6 6 7 7 9 10 13 14 15 16 19 20 21 5 7 5 3 3 2 5 5 3 6 4 4 5 2 2 1 3 6 0 7 8 8 9 13 13 14 16 23 14 20
9 8 7 8 7 6 5 7 9 10 12 13 14 16 17 21 5 4 4 10 6 2 6 1 3 4 4 3 3 5 4 4 4 3 5 3 4 9 10 11 7 14 12 21 15 13 16
12 9 8 8 7 6 7 7 7 10 11 12 12 15 16 9 2 4 5 7 6 4 8 6 2 2 7 2 5 7 1 2 3 2 3 8 11 7 8 10 9 10 16 13 19 14 13
13 12 10 8 5 3 3 5 7 9 11 12 13 14 15 2 2 3 5 5 4 10 1 2 3 5 8 4 4 7 6 6 2 2 2 10 7 3 3 10 5 12 11 12 10 8 10
13 12 10 10 7 6 5 5 8 8 10 12 14 15 9 1 2 5 4 4 8 9 4 2 3 5 5 4 6 7 6 9 4 5 7 5 6 4 7 13 9 7 6 5 5 3 12
12 11 12 10 8 7 5 4 6 8 10 12 14 14 4 2 4 4 3 7 10 6 2 3 3 9 4 7 5 10 6 3 8 5 4 6 9 6 14 8 8 6 2 3 7 3 4
15 13 12 12 10 8 7 5 6 7 11 13 12 3 3 3 4 2 6 7 8 4 2 3 6 4 5 6 4 8 4 4 4 6 4 5 6 17 8 20 3 5 3 10 3 10 4
16 14 14 11 10 7 6 6 7 6 9 10 3 3 3 4 3 4 7 5 3 2 2 1 0 3 2 5 5 6 2 3 5 6 5 4 10 6 11 6 8 6 4 5 1 2 6
16 17 15 13 12 9 8 7 7 6 8 8 3 3 4 5 4 6 5 6 2 1 1 2 2 1 2 3 3 2 2 2 3 7 5 3 2 9 7 6 9 5 4 2 3 4 4
16 16 16 14 13 11 9 7 7 6 8 4 2 2 4 4 6 2 3 2 1 0 3 1 2 2 3 3 3 2 0 4 6 3 3 1 4 5 16 16 7 3 4 5 3 5 3
17 16 16 15 14 12 10 9 7 5 2 3 3 2 4 5 4 1 4 2 2 2 2 2 1 3 2 1 2 3 3 4 8 6 5 4 2 6 9 7 5 5 12 12 3 2 5
18 18 17 16 15 14 13 10 8 6 2 3 4 2 5 5 1 6 4 3 2 5 2 2 1 2 2 2 3 3 3 4 11 5 10 3 4 7 7 5 8 12 14 12 8 2 4
18 18 17 16 16 15 15 13 10 7 4 3 2 4 5 2 4 3 2 2 3 4 4 5 2 3 2 2 3 4 2 5 4 3 3 4 3 3 6 11 11 16 16 13 12 11 5
19 19 18 17 18 17 15 14 11 9 4 2 5 4 2 3 5 6 3 4 6 3 6 4 4 1 3 4 6 6 2 2 5 2 3 3 5 5 8 10 12 13 15 18 14 15 14
21 20 20 20 20 18 17 15 13 11 6 2 2 2 5 2 5 5 6 6 8 4 1 6 4 2 4 6 4 6 8 7 8 6 3 3 3 0 5 5 10 6 4 4 5 3 4
21 21 22 21 20 19 18 16 13 13 10 2 3 2 5 4 4 6 6 7 8 7 5 4 5 5 3 1 3 4 6 11 10 12 10 5 5 2 5 5 4 6 9 8 5 9 9
22 22 23 23 21 19 17 17 15 14 12 3 2 2 4 2 2 2 6 6 7 6 5 4 2 4 5 4 5 7 6 6 3 7 13 14 5 2 1 2 8 4 7 7 3 2 9
22 21 22 21 20 19 17 18 16 15 13 3 2 2 2 5 6 1 3 3 5 4 3 3 2 4 5 4 4 3 2 3 3 7 5 13 6 4 2 4 5 1 7 11 6 5 7
22 22 22 22 21 20 18 17 16 16 14 4 2 3 3 3 4 4 4 5 5 4 3 0 2 2 5 3 3 3 4 4 3 3 1 5 3 11 8 5 7 2 6 8 1 5 11
23 22 21 21 20 20 20 19 17 15 16 5 3 2 4 3 4 2 2 2 3 3 5 4 6 4 3 3 4 4 3 4 2 3 2 3 3 4 2 1 7 6 3 3 6 7 6
23 22 21 21 20 20 20 19 18 17 16 9 1 2 2 3 4 1 3 4 4 4 6 3 6 4 5 4 0 3 1 1 2 4 4 3 6 4 7 6 3 4 3 7 3 6 8
Wind_Direction
22 41 16 3 357 348 16 6 359 354 352 347 344 341 340 339 333 333 329 324 322 323 325 327 333 335 348 58 71 326 307 312 338 353 12 5 26 13 7 314 308 231 276 294 294 285 266
302 70 16 0 351 343 15 356 350 347 347 344 340 339 338 337 334 333 328 323 321 324 325 325 332 330 7 75 293 342 342 9 354 356 334 6 350 304 262 283 318 319 318 300 295 292 275
299 88 50 358 349 337 355 349 347 346 341 340 344 340 337 334 331 328 324 318 315 316 315 318 330 328 61 99 321 327 354 337 320 357 311 282 294 46 346 322 333 304 305 308 280 276 270
334 15 337 353 342 343 349 351 346 342 339 344 342 344 339 332 328 324 316 309 303 301 302 313 342 342 90 263 267 341 318 313 307 334 293 267 270 240 201 293 343 341 302 290 349 284 247
262 251 292 326 325 331 337 347 346 344 342 340 339 338 334 328 322 318 312 307 292 276 258 288 14 15 31 319 351 304 282 303 329 327 302 306 74 189 6 33 356 333 278 288 308 302 268
240 254 284 291 311 325 327 339 346 345 344 343 341 337 333 328 326 325 328 340 66 75 351 253 256 23 355 296 288 308 302 356 356 345 12 16 43 53 26 65 258 281 284 283 281 316 330
275 279 279 283 298 306 319 328 340 342 344 341 337 335 334 333 335 331 349 19 16 352 41 82 265 140 249 287 316 301 314 47 36 46 49 349 60 313 273 233 241 260 267 275 283 293 295
263 270 274 279 286 291 308 320 331 335 337 339 335 334 335 335 334 330 4 70 111 208 346 319 282 279 249 216 309 327 24 45 32 9 17 9 14 261 307 305 307 296 268 269 276 276 272
263 264 273 269 274 290 302 316 322 326 330 335 333 334 335 332 325 23 55 42 334 83 92 306 238 254 254 147 251 268 109 57 315 7 338 235 263 302 310 307 307 301 294 297 270 273 271
256 242 259 268 270 289 293 309 314 321 325 330 332 334 334 328 50 311 57 325 347 82 79 348 231 263 312 220 275 220 209 133 16 338 334 281 267 304 298 288 263 284 298 294 328 286 262
251 239 255 262 270 264 282 300 309 314 318 325 333 339 344 4 193 56 294 312 324 57 66 278 78 150 307 106 258 355 293 110 153 278 85 262 285 280 279 258 271 274 276 297 295 277 284
248 242 247 254 262 271 283 291 300 307 317 326 332 336 344 3 23 215 296 314 61 45 274 337 81 346 2 341 2 336 10 48 107 287 244 262 267 208 241 343 298 273 280 282 283 259 261
238 243 241 248 222 258 284 289 302 302 320 328 328 326 330 239 284 301 331 54 44 95 267 27 341 345 351 307 5 11 351 62 39 354 345 323 303 336 32 346 319 350 52 322 275 249 258
229 234 241 243 234 245 259 284 329 316 323 329 326 319 301 219 301 337 55 51 75 238 1 43 326 311 105 17 356 350 8 44 24 44 314 359 327 29 331 314 272 313 74 231 306 295 287
223 233 240 242 244 250 231 275 304 312 329 335 330 1 343 279 312 50 74 56 187 208 83 351 323 35 10 15 6 20 30 43 48 20 25 331 268 319 327 321 293 333 5 291 191 284 254
228 220 235 234 235 224 235 263 281 306 331 355 11 352 289 287 337 61 73 175 207 82 86 318 16 65 27 338 31 17 338 333 353 32 28 331 294 303 337 315 336 295 15 2 221 4 336
239 220 226 230 235 233 242 255 258 289 320 333 44 48 264 332 61 47 124 201 166 33 119 109 113 21 356 15 331 309 308 49 5 350 41 19 299 295 317 37 330 359 26 334 230 356 321
233 223 216 221 233 234 228 244 250 279 320 83 100 51 295 35 53 43 132 157 6 191 66 238 161 207 108 34 335 328 177 100 50 34 28 332 265 300 299 288 242 165 48 18 51 340 285
227 227 214 221 222 232 226 230 242 259 18 126 108 201 339 73 128 301 279 278 233 118 80 85 91 81 71 306 327 254 350 0 35 35 11 328 303 324 332 23 354 4 8 341 261 220 250
218 218 218 224 216 222 222 225 231 237 257 101 92 98 334 39 126 137 160 197 198 179 174 152 144 53 56 304 209 270 329 329 351 353 317 174 214 189 219 246 304 302 314 312 304 215 271
213 220 214 215 213 217 220 219 222 222 229 108 79 228 190 203 292 178 112 189 145 176 182 149 177 119 117 254 310 258 18 332 317 313 57 68 263 280 293 302 290 281 281 276 268 263 246
212 210 210 207 208 212 214 213 214 207 184 122 138 144 35 168 116 138 186 233 191 221 164 194 158 176 149 194 203 270 266 153 228 10 50 25 289 334 292 276 274 293 284 273 261 269 267
207 204 204 206 208 207 207 213 207 206 174 200 241 302 111 230 163 121 209 191 203 188 288 166 174 166 241 252 233 232 215 199 217 219 127 222 202 58 270 313 325 340 257 289 253 309 290
203 203 205 207 206 204 205 204 205 208 187 151 257 115 96 242 168 196 182 184 207 221 190 210 167 178 198 237 276 291 263 241 227 234 181 200 179 195 269 341 5 231 17 10 68 59 21
201 204 205 206 204 205 205 198 199 208 208 149 290 79 126 208 193 287 230 196 210 232 203 189 226 155 144 51 22 353 342 5 279 213 195 196 161 242 168 230 283 329 22 346 348 117 26
196 198 203 202 199 199 199 194 193 201 205 124 233 168 134 123 243 293 181 188 162 152 1 128 102 151 88 85 72 109 281 279 304 315 16 171 173 142 227 249 260 59 322 307 279 230 343
194 195 202 202 198 193 191 187 194 193 195 142 238 191 113 126 260 166 178 180 144 111 141 20 138 86 75 97 96 152 251 261 270 266 148 132 175 207 231 247 270 162 353 310 74 290 322
194 192 194 199 196 190 189 188 190 192 190 140 244 210 132 152 269 251 352 123 86 120 143 217 45 341 51 97 133 224 177 248 301 280 215 190 197 195 206 126 274 20 39 28 248 295 289
189 189 189 193 191 190 189 188 189 187 186 140 213 270 140 138 236 262 256 229 190 183 140 183 176 172 178 99 72 109 252 341 184 268 311 259 194 199 195 226 238 147 221 268 285 274 278